Location: Miles
(41.4492°N, 81.6087°W)
Time: 08:38:56
(UTC+00:00)

Transit 2A - Pass Details

Date: 17 September 2024
Orbit: 590 x 960 km, 66.7° (Epoch: 09 October)

Event Time Altitude Azimuth Distance (km) Brightness Sun altitude
Rises 23:24:00 0° 212° (SSW) 3,388 9.8 0.5°
Reaches altitude 10° 23:26:23 10° 213° (SSW) 2,505 9.1 0.1°
Maximum altitude 23:32:16 80° 300° (WNW) 938 6.7 -1.0°
Drops below altitude 10° 23:38:36 10° 28° (NNE) 2,685 8.6 -2.2°
Sets 23:41:14 0° 30° (NNE) 3,647 9.2 -2.7°
